Location: ?
(35.4554°N, 139.3092°E)
Time: 21:45:29
(UTC+00:00)

Milstar 3 - Pass Details

Date: 21 April 2021
Orbit: 1089 x 5155 km, 28.3° (Epoch: 08 May)

Event Time Altitude Azimuth Distance (km) Brightness Sun altitude
Exits shadow 18:42:00 21° 251° (WSW) 2,472 4.0 -15.9°
Maximum altitude 18:47:04 53° 183° (S) 1,804 3.7 -15.0°
Drops below altitude 10° 18:58:53 10° 111° (ESE) 5,043 6.8 -12.9°
Sets 19:04:07 0° 107° (ESE) 6,683 7.6 -11.9°
